Location: Shenandoah County Park
(38.9356°N, 78.4524°W)
Time: 18:26:43
(UTC-05:00)

N. Korean satellite - Pass Details

Date: 08 December 2021
Orbit: 447 x 490 km, 97.3° (Epoch: 26 January)

Event Time Altitude Azimuth Distance (km) Brightness Sun altitude
Rises 05:45:22 0° 5° (N) 2,456 10.0 -17.9°
Reaches altitude 10° 05:47:26 10° 360° (N) 1,579 9.0 -17.5°
Maximum altitude 05:50:42 47° 285° (WNW) 599 6.5 -16.9°
Drops below altitude 10° 05:53:57 10° 210° (SSW) 1,573 9.0 -16.3°
Sets 05:56:01 0° 205° (SSW) 2,444 10.1 -15.9°
